Year,Month,Day,Hour,Minute,Value (Times are PST for temperature in C)
2016,05,29,00,00,12.60
2016,05,29,00,01,12.50
2016,05,29,00,02,12.50
2016,05,29,00,03,12.40
2016,05,29,00,04,12.40
2016,05,29,00,05,12.40
2016,05,29,00,06,12.30
2016,05,29,00,07,12.30
2016,05,29,00,08,12.30
2016,05,29,00,09,12.30
2016,05,29,00,10,12.30
2016,05,29,00,11,12.20
2016,05,29,00,12,12.20
2016,05,29,00,13,12.10
2016,05,29,00,14,12.10
2016,05,29,00,15,12.00
2016,05,29,00,16,11.90
2016,05,29,00,17,11.80
2016,05,29,00,18,11.80
2016,05,29,00,19,11.70
2016,05,29,00,20,11.60
2016,05,29,00,21,11.50
2016,05,29,00,22,11.40
2016,05,29,00,23,11.40
2016,05,29,00,24,11.30
2016,05,29,00,25,11.30
2016,05,29,00,26,11.30
2016,05,29,00,27,11.20
2016,05,29,00,28,11.20
2016,05,29,00,29,11.20
2016,05,29,00,30,11.20
2016,05,29,00,31,11.20
2016,05,29,00,32,11.20
2016,05,29,00,33,11.20
2016,05,29,00,34,11.20
2016,05,29,00,35,11.20
2016,05,29,00,36,11.20
2016,05,29,00,37,11.20
2016,05,29,00,38,11.20
2016,05,29,00,39,11.20
2016,05,29,00,40,11.20
2016,05,29,00,41,11.20
2016,05,29,00,42,11.20
2016,05,29,00,43,11.20
2016,05,29,00,44,11.20
2016,05,29,00,45,11.20
2016,05,29,00,46,11.20
2016,05,29,00,47,11.20
2016,05,29,00,48,11.20
2016,05,29,00,49,11.20
2016,05,29,00,50,11.20
2016,05,29,00,51,11.20
2016,05,29,00,52,11.20
2016,05,29,00,53,11.20
2016,05,29,00,54,11.20
2016,05,29,00,55,11.20
2016,05,29,00,56,11.20
2016,05,29,00,57,11.20
2016,05,29,00,58,11.20
2016,05,29,00,59,11.20
2016,05,29,01,00,11.20
2016,05,29,01,01,11.20
2016,05,29,01,02,11.20
2016,05,29,01,03,11.30
2016,05,29,01,04,11.40
2016,05,29,01,05,11.40
2016,05,29,01,06,11.50
2016,05,29,01,07,11.50
2016,05,29,01,08,11.40
2016,05,29,01,09,11.40
2016,05,29,01,10,11.40
2016,05,29,01,11,11.30
2016,05,29,01,12,11.30
2016,05,29,01,13,11.30
2016,05,29,01,14,11.20
2016,05,29,01,15,11.20
2016,05,29,01,16,11.20
2016,05,29,01,17,11.20
2016,05,29,01,18,11.10
2016,05,29,01,19,11.10
2016,05,29,01,20,11.10
2016,05,29,01,21,11.10
2016,05,29,01,22,11.10
2016,05,29,01,23,11.10
2016,05,29,01,24,11.10
2016,05,29,01,25,11.10
2016,05,29,01,26,11.10
2016,05,29,01,27,11.10
2016,05,29,01,28,11.00
2016,05,29,01,29,11.00
2016,05,29,01,30,10.90
2016,05,29,01,31,10.90
2016,05,29,01,32,10.90
2016,05,29,01,33,10.80
2016,05,29,01,34,10.80
2016,05,29,01,35,10.80
2016,05,29,01,36,10.70
2016,05,29,01,37,10.70
2016,05,29,01,38,10.70
2016,05,29,01,39,10.70
2016,05,29,01,40,10.60
2016,05,29,01,41,10.60
2016,05,29,01,42,10.60
2016,05,29,01,43,10.60
2016,05,29,01,44,10.60
2016,05,29,01,45,10.60
2016,05,29,01,46,10.60
2016,05,29,01,47,10.50
2016,05,29,01,48,10.50
2016,05,29,01,49,10.50
2016,05,29,01,50,10.40
2016,05,29,01,51,10.40
2016,05,29,01,52,10.40
2016,05,29,01,53,10.40
2016,05,29,01,54,10.40
2016,05,29,01,55,10.40
2016,05,29,01,56,10.40
2016,05,29,01,57,10.40
2016,05,29,01,58,10.40
2016,05,29,01,59,10.40
2016,05,29,02,00,10.40
2016,05,29,02,01,10.40
2016,05,29,02,02,10.40
2016,05,29,02,03,10.40
2016,05,29,02,04,10.40
2016,05,29,02,05,10.40
2016,05,29,02,06,10.50
2016,05,29,02,07,10.50
2016,05,29,02,08,10.50
2016,05,29,02,09,10.60
2016,05,29,02,10,10.60
2016,05,29,02,11,10.60
2016,05,29,02,12,10.70
2016,05,29,02,13,10.70
2016,05,29,02,14,10.70
2016,05,29,02,15,10.70
2016,05,29,02,16,10.70
2016,05,29,02,17,10.70
2016,05,29,02,18,10.80
2016,05,29,02,19,10.80
2016,05,29,02,20,10.80
2016,05,29,02,21,10.80
2016,05,29,02,22,10.80
2016,05,29,02,23,10.80
2016,05,29,02,24,10.80
2016,05,29,02,25,10.80
2016,05,29,02,26,10.80
2016,05,29,02,27,10.80
2016,05,29,02,28,10.80
2016,05,29,02,29,10.80
2016,05,29,02,30,10.80
2016,05,29,02,31,10.80
2016,05,29,02,32,10.80
2016,05,29,02,33,10.80
2016,05,29,02,34,10.80
2016,05,29,02,35,10.80
2016,05,29,02,36,10.80
2016,05,29,02,37,10.80
2016,05,29,02,38,10.80
2016,05,29,02,39,10.80
2016,05,29,02,40,10.80
2016,05,29,02,41,10.80
2016,05,29,02,42,10.80
2016,05,29,02,43,10.70
2016,05,29,02,44,10.70
2016,05,29,02,45,10.70
2016,05,29,02,46,10.70
2016,05,29,02,47,10.70
2016,05,29,02,48,10.60
2016,05,29,02,49,10.60
2016,05,29,02,50,10.50
2016,05,29,02,51,10.50
2016,05,29,02,52,10.40
2016,05,29,02,53,10.40
2016,05,29,02,54,10.30
2016,05,29,02,55,10.30
2016,05,29,02,56,10.30
2016,05,29,02,57,10.30
2016,05,29,02,58,10.30
2016,05,29,02,59,10.30
2016,05,29,03,00,10.30
2016,05,29,03,01,10.30
2016,05,29,03,02,10.30
2016,05,29,03,03,10.30
2016,05,29,03,04,10.30
2016,05,29,03,05,10.30
2016,05,29,03,06,10.40
2016,05,29,03,07,10.40
2016,05,29,03,08,10.40
2016,05,29,03,09,10.40
2016,05,29,03,10,10.40
2016,05,29,03,11,10.50
2016,05,29,03,12,10.50
2016,05,29,03,13,10.50
2016,05,29,03,14,10.50
2016,05,29,03,15,10.50
2016,05,29,03,16,10.50
2016,05,29,03,17,10.50
2016,05,29,03,18,10.50
2016,05,29,03,19,10.50
2016,05,29,03,20,10.50
2016,05,29,03,21,10.50
2016,05,29,03,22,10.50
2016,05,29,03,23,10.50
2016,05,29,03,24,10.40
2016,05,29,03,25,10.40
2016,05,29,03,26,10.40
2016,05,29,03,27,10.40
2016,05,29,03,28,10.40
2016,05,29,03,29,10.40
2016,05,29,03,30,10.40
2016,05,29,03,31,10.30
2016,05,29,03,32,10.30
2016,05,29,03,33,10.30
2016,05,29,03,34,10.30
2016,05,29,03,35,10.30
2016,05,29,03,36,10.30
2016,05,29,03,37,10.30
2016,05,29,03,38,10.30
2016,05,29,03,39,10.20
2016,05,29,03,40,10.20
2016,05,29,03,41,10.20
2016,05,29,03,42,10.30
2016,05,29,03,43,10.30
2016,05,29,03,44,10.30
2016,05,29,03,45,10.30
2016,05,29,03,46,10.30
2016,05,29,03,47,10.30
2016,05,29,03,48,10.30
2016,05,29,03,49,10.30
2016,05,29,03,50,10.30
2016,05,29,03,51,10.30
2016,05,29,03,52,10.30
2016,05,29,03,53,10.30
2016,05,29,03,54,10.30
2016,05,29,03,55,10.30
2016,05,29,03,56,10.30
2016,05,29,03,57,10.30
2016,05,29,03,58,10.40
2016,05,29,03,59,10.40
2016,05,29,04,00,10.40
2016,05,29,04,01,10.40
2016,05,29,04,02,10.40
2016,05,29,04,03,10.40
2016,05,29,04,04,10.40
2016,05,29,04,08,10.40
2016,05,29,04,09,10.40
2016,05,29,04,10,10.40
2016,05,29,04,11,10.40
2016,05,29,04,12,10.40
2016,05,29,04,13,10.40
2016,05,29,04,14,10.40
2016,05,29,04,15,10.40
2016,05,29,04,16,10.40
2016,05,29,04,17,10.40
2016,05,29,04,18,10.40
2016,05,29,04,19,10.40
2016,05,29,04,20,10.40
2016,05,29,04,21,10.40
2016,05,29,04,22,10.40
2016,05,29,04,23,10.50
2016,05,29,04,24,10.50
2016,05,29,04,25,10.50
2016,05,29,04,26,10.50
2016,05,29,04,27,10.50
2016,05,29,04,28,10.50
2016,05,29,04,29,10.50
2016,05,29,04,30,10.60
2016,05,29,04,31,10.60
2016,05,29,04,32,10.60
2016,05,29,04,33,10.60
2016,05,29,04,34,10.60
2016,05,29,04,35,10.60
2016,05,29,04,36,10.60
2016,05,29,04,37,10.60
2016,05,29,04,38,10.60
2016,05,29,04,39,10.60
2016,05,29,04,40,10.60
2016,05,29,04,41,10.60
2016,05,29,04,42,10.60
2016,05,29,04,43,10.60
2016,05,29,04,44,10.60
2016,05,29,04,45,10.60
2016,05,29,04,46,10.60
2016,05,29,04,47,10.60
2016,05,29,04,48,10.60
2016,05,29,04,49,10.60
2016,05,29,04,50,10.60
2016,05,29,04,51,10.60
2016,05,29,04,52,10.60
2016,05,29,04,53,10.60
2016,05,29,04,54,10.60
2016,05,29,04,55,10.60
2016,05,29,04,56,10.60
2016,05,29,04,57,10.60
2016,05,29,04,58,10.60
2016,05,29,04,59,10.60
2016,05,29,05,00,10.60
2016,05,29,05,01,10.60
2016,05,29,05,02,10.60
2016,05,29,05,03,10.70
2016,05,29,05,04,10.60
2016,05,29,05,05,10.60
2016,05,29,05,06,10.70
2016,05,29,05,07,10.60
2016,05,29,05,08,10.70
2016,05,29,05,09,10.70
2016,05,29,05,10,10.70
2016,05,29,05,11,10.70
2016,05,29,05,12,10.70
2016,05,29,05,13,10.70
2016,05,29,05,14,10.80
2016,05,29,05,15,10.80
2016,05,29,05,16,10.80
2016,05,29,05,17,10.80
2016,05,29,05,18,10.80
2016,05,29,05,19,10.80
2016,05,29,05,20,10.80
2016,05,29,05,21,10.80
2016,05,29,05,22,10.90
2016,05,29,05,23,10.90
2016,05,29,05,24,10.90
2016,05,29,05,25,10.90
2016,05,29,05,26,10.90
2016,05,29,05,27,10.90
2016,05,29,05,28,10.90
2016,05,29,05,29,11.00
2016,05,29,05,30,10.90
2016,05,29,05,31,11.00
2016,05,29,05,32,11.00
2016,05,29,05,33,11.00
2016,05,29,05,34,11.00
2016,05,29,05,35,11.00
2016,05,29,05,36,11.00
2016,05,29,05,37,11.00
2016,05,29,05,38,11.00
2016,05,29,05,39,11.10
2016,05,29,05,40,11.10
2016,05,29,05,41,11.10
2016,05,29,05,42,11.10
2016,05,29,05,43,11.10
2016,05,29,05,44,11.10
2016,05,29,05,45,11.10
2016,05,29,05,46,11.10
2016,05,29,05,47,11.10
2016,05,29,05,48,11.10
2016,05,29,05,49,11.10
2016,05,29,05,50,11.10
2016,05,29,05,51,11.10
2016,05,29,05,52,11.10
2016,05,29,05,53,11.20
2016,05,29,05,54,11.20
2016,05,29,05,55,11.20
2016,05,29,05,56,11.20
2016,05,29,05,57,11.20
2016,05,29,05,58,11.20
2016,05,29,05,59,11.10
2016,05,29,06,00,11.10
2016,05,29,06,01,11.10
2016,05,29,06,02,11.20
2016,05,29,06,03,11.10
2016,05,29,06,04,11.10
2016,05,29,06,05,11.10
2016,05,29,06,06,11.10
2016,05,29,06,07,11.10
2016,05,29,06,08,11.10
2016,05,29,06,09,11.10
2016,05,29,06,10,11.10
2016,05,29,06,11,11.10
2016,05,29,06,12,11.10
2016,05,29,06,13,11.10
2016,05,29,06,14,11.10
2016,05,29,06,15,11.10
2016,05,29,06,16,11.00
2016,05,29,06,17,11.00
2016,05,29,06,18,11.00
2016,05,29,06,19,11.00
2016,05,29,06,20,11.00
2016,05,29,06,21,11.00
2016,05,29,06,22,11.00
2016,05,29,06,23,11.00
2016,05,29,06,24,11.00
2016,05,29,06,25,11.00
2016,05,29,06,26,11.00
2016,05,29,06,27,10.90
2016,05,29,06,28,10.90
2016,05,29,06,29,10.90
2016,05,29,06,30,10.90
2016,05,29,06,31,10.90
2016,05,29,06,32,10.90
2016,05,29,06,33,10.90
2016,05,29,06,34,10.90
2016,05,29,06,35,10.90
2016,05,29,06,36,10.90
2016,05,29,06,37,10.90
2016,05,29,06,38,11.00
2016,05,29,06,39,11.00
2016,05,29,06,40,11.00
2016,05,29,06,41,11.00
2016,05,29,06,42,11.00
2016,05,29,06,43,11.00
2016,05,29,06,44,11.00
2016,05,29,06,45,11.00
2016,05,29,06,46,11.00
2016,05,29,06,47,11.10
2016,05,29,06,48,11.10
2016,05,29,06,49,11.10
2016,05,29,06,50,11.10
2016,05,29,06,51,11.10
2016,05,29,06,52,11.10
2016,05,29,06,53,11.10
2016,05,29,06,54,11.10
2016,05,29,06,55,11.10
2016,05,29,06,56,11.10
2016,05,29,06,57,11.10
2016,05,29,06,58,11.10
2016,05,29,06,59,11.10
2016,05,29,07,00,11.10
2016,05,29,07,01,11.20
2016,05,29,07,02,11.20
2016,05,29,07,03,11.20
2016,05,29,07,04,11.20
2016,05,29,07,05,11.30
2016,05,29,07,06,11.30
2016,05,29,07,07,11.30
2016,05,29,07,08,11.30
2016,05,29,07,09,11.30
2016,05,29,07,10,11.30
2016,05,29,07,11,11.40
2016,05,29,07,12,11.40
2016,05,29,07,13,11.40
2016,05,29,07,14,11.50
2016,05,29,07,15,11.50
2016,05,29,07,16,11.50
2016,05,29,07,17,11.60
2016,05,29,07,18,11.60
2016,05,29,07,19,11.60
2016,05,29,07,20,11.70
2016,05,29,07,21,11.70
2016,05,29,07,22,11.80
2016,05,29,07,23,11.80
2016,05,29,07,24,11.90
2016,05,29,07,25,12.00
2016,05,29,07,26,12.00
2016,05,29,07,27,12.10
2016,05,29,07,28,12.10
2016,05,29,07,29,12.20
2016,05,29,07,30,12.30
2016,05,29,07,31,12.30
2016,05,29,07,32,12.40
2016,05,29,07,33,12.40
2016,05,29,07,34,12.40
2016,05,29,07,35,12.50
2016,05,29,07,36,12.50
2016,05,29,07,37,12.60
2016,05,29,07,38,12.70
2016,05,29,07,39,12.70
2016,05,29,07,40,12.80
2016,05,29,07,41,12.80
2016,05,29,07,42,12.80
2016,05,29,07,43,12.90
2016,05,29,07,44,12.90
2016,05,29,07,45,13.00
2016,05,29,07,46,13.00
2016,05,29,07,47,13.10
2016,05,29,07,48,13.10
2016,05,29,07,49,13.10
2016,05,29,07,50,13.10
2016,05,29,07,51,13.00
2016,05,29,07,52,13.00
2016,05,29,07,53,12.90
2016,05,29,07,54,12.90
2016,05,29,07,55,12.90
2016,05,29,07,56,12.80
2016,05,29,07,57,12.80
2016,05,29,07,58,12.80
2016,05,29,07,59,12.80
2016,05,29,08,00,12.70
2016,05,29,08,01,12.70
2016,05,29,08,02,12.70
2016,05,29,08,03,12.70
2016,05,29,08,04,12.60
2016,05,29,08,05,12.60
2016,05,29,08,06,12.60
2016,05,29,08,07,12.60
2016,05,29,08,08,12.60
2016,05,29,08,09,12.60
2016,05,29,08,10,12.50
2016,05,29,08,11,12.60
2016,05,29,08,12,12.60
2016,05,29,08,13,12.60
2016,05,29,08,14,12.60
2016,05,29,08,15,12.60
2016,05,29,08,16,12.60
2016,05,29,08,17,12.60
2016,05,29,08,18,12.60
2016,05,29,08,19,12.60
2016,05,29,08,20,12.60
2016,05,29,08,21,12.60
2016,05,29,08,22,12.60
2016,05,29,08,23,12.60
2016,05,29,08,24,12.70
2016,05,29,08,25,12.70
2016,05,29,08,26,12.70
2016,05,29,08,27,12.70
2016,05,29,08,28,12.70
2016,05,29,08,29,12.70
2016,05,29,08,30,12.70
2016,05,29,08,31,12.70
2016,05,29,08,32,12.70
2016,05,29,08,33,12.80
2016,05,29,08,34,12.80
2016,05,29,08,35,12.80
2016,05,29,08,36,12.80
2016,05,29,08,37,12.80
2016,05,29,08,38,12.80
2016,05,29,08,39,12.80
2016,05,29,08,40,12.80
2016,05,29,08,41,12.80
2016,05,29,08,42,12.80
2016,05,29,08,43,12.80
2016,05,29,08,44,12.80
2016,05,29,08,45,12.80
2016,05,29,08,46,12.80
2016,05,29,08,47,12.80
2016,05,29,08,48,12.80
2016,05,29,08,49,12.80
2016,05,29,08,50,12.80
2016,05,29,08,51,12.80
2016,05,29,08,52,12.80
2016,05,29,08,53,12.80
2016,05,29,08,54,12.90
2016,05,29,08,55,12.90
2016,05,29,08,56,12.90
2016,05,29,08,57,12.90
2016,05,29,08,58,12.90
2016,05,29,08,59,12.90
2016,05,29,09,00,12.90
2016,05,29,09,01,13.00
2016,05,29,09,02,13.00
2016,05,29,09,03,13.00
2016,05,29,09,04,13.10
2016,05,29,09,05,13.10
2016,05,29,09,06,13.10
2016,05,29,09,07,13.10
2016,05,29,09,08,13.10
2016,05,29,09,09,13.20
2016,05,29,09,10,13.20
2016,05,29,09,11,13.30
2016,05,29,09,12,13.30
2016,05,29,09,13,13.30
2016,05,29,09,14,13.30
2016,05,29,09,15,13.30
2016,05,29,09,16,13.30
2016,05,29,09,17,13.30
2016,05,29,09,18,13.30
2016,05,29,09,19,13.30
2016,05,29,09,20,13.30
2016,05,29,09,21,13.30
2016,05,29,09,22,13.20
2016,05,29,09,23,13.20
2016,05,29,09,24,13.10
2016,05,29,09,25,13.10
2016,05,29,09,26,13.10
2016,05,29,09,27,13.10
2016,05,29,09,28,13.10
2016,05,29,09,29,13.10
2016,05,29,09,30,13.10
2016,05,29,09,31,13.10
2016,05,29,09,32,13.10
2016,05,29,09,33,13.20
2016,05,29,09,34,13.20
2016,05,29,09,35,13.20
2016,05,29,09,36,13.20
2016,05,29,09,37,13.30
2016,05,29,09,38,13.30
2016,05,29,09,39,13.40
2016,05,29,09,40,13.50
2016,05,29,09,41,13.60
2016,05,29,09,42,13.60
2016,05,29,09,43,13.70
2016,05,29,09,44,13.80
2016,05,29,09,45,13.90
2016,05,29,09,46,14.00
2016,05,29,09,47,14.10
2016,05,29,09,48,14.20
2016,05,29,09,49,14.20
2016,05,29,09,50,14.30
2016,05,29,09,51,14.30
2016,05,29,09,52,14.40
2016,05,29,09,53,14.50
2016,05,29,09,54,14.60
2016,05,29,09,55,14.70
2016,05,29,09,56,14.80
2016,05,29,09,57,14.90
2016,05,29,09,58,14.90
2016,05,29,09,59,14.90
2016,05,29,10,00,15.00
2016,05,29,10,01,15.00
2016,05,29,10,02,15.10
2016,05,29,10,03,15.10
2016,05,29,10,04,15.10
2016,05,29,10,05,15.10
2016,05,29,10,06,15.10
2016,05,29,10,07,15.10
2016,05,29,10,08,15.10
2016,05,29,10,09,15.00
2016,05,29,10,10,15.00
2016,05,29,10,11,14.90
2016,05,29,10,12,14.90
2016,05,29,10,13,14.90
2016,05,29,10,14,14.90
2016,05,29,10,15,15.00
2016,05,29,10,16,15.10
2016,05,29,10,17,15.20
2016,05,29,10,18,15.30
2016,05,29,10,19,15.40
2016,05,29,10,20,15.40
2016,05,29,10,21,15.50
2016,05,29,10,22,15.50
2016,05,29,10,23,15.50
2016,05,29,10,24,15.60
2016,05,29,10,25,15.60
2016,05,29,10,26,15.70
2016,05,29,10,27,15.70
2016,05,29,10,28,15.70
2016,05,29,10,29,15.70
2016,05,29,10,30,15.60
2016,05,29,10,31,15.60
2016,05,29,10,32,15.60
2016,05,29,10,33,15.50
2016,05,29,10,34,15.50
2016,05,29,10,35,15.40
2016,05,29,10,36,15.40
2016,05,29,10,37,15.30
2016,05,29,10,38,15.30
2016,05,29,10,39,15.20
2016,05,29,10,40,15.20
2016,05,29,10,41,15.20
2016,05,29,10,42,15.10
2016,05,29,10,43,15.10
2016,05,29,10,44,15.10
2016,05,29,10,45,15.10
2016,05,29,10,46,15.10
2016,05,29,10,47,15.10
2016,05,29,10,48,15.10
2016,05,29,10,49,15.10
2016,05,29,10,50,15.10
2016,05,29,10,51,15.20
2016,05,29,10,52,15.20
2016,05,29,10,53,15.20
2016,05,29,10,54,15.20
2016,05,29,10,55,15.20
2016,05,29,10,56,15.10
2016,05,29,10,57,15.10
2016,05,29,10,58,15.10
2016,05,29,10,59,15.00
2016,05,29,11,00,15.00
2016,05,29,11,01,14.90
2016,05,29,11,02,14.80
2016,05,29,11,03,14.80
2016,05,29,11,04,14.70
2016,05,29,11,05,14.60
2016,05,29,11,06,14.50
2016,05,29,11,07,14.40
2016,05,29,11,08,14.30
2016,05,29,11,09,14.30
2016,05,29,11,10,14.30
2016,05,29,11,11,14.30
2016,05,29,11,12,14.30
2016,05,29,11,13,14.30
2016,05,29,11,14,14.30
2016,05,29,11,15,14.40
2016,05,29,11,16,14.40
2016,05,29,11,17,14.40
2016,05,29,11,18,14.40
2016,05,29,11,19,14.40
2016,05,29,11,20,14.30
2016,05,29,11,21,14.30
2016,05,29,11,22,14.30
2016,05,29,11,23,14.30
2016,05,29,11,24,14.30
2016,05,29,11,25,14.30
2016,05,29,11,26,14.30
2016,05,29,11,27,14.30
2016,05,29,11,28,14.30
2016,05,29,11,29,14.30
2016,05,29,11,30,14.40
2016,05,29,11,31,14.40
2016,05,29,11,32,14.50
2016,05,29,11,33,14.60
2016,05,29,11,34,14.60
2016,05,29,11,35,14.60
2016,05,29,11,36,14.70
2016,05,29,11,37,14.70
2016,05,29,11,38,14.70
2016,05,29,11,39,14.60
2016,05,29,11,40,14.60
2016,05,29,11,41,14.60
2016,05,29,11,42,14.60
2016,05,29,11,43,14.60
2016,05,29,11,44,14.50
2016,05,29,11,45,14.50
2016,05,29,11,46,14.40
2016,05,29,11,47,14.40
2016,05,29,11,48,14.30
2016,05,29,11,49,14.20
2016,05,29,11,50,14.10
2016,05,29,11,51,14.10
2016,05,29,11,52,14.00
2016,05,29,11,53,14.00
2016,05,29,11,54,14.00
2016,05,29,11,55,14.00
2016,05,29,11,56,14.00
2016,05,29,11,57,14.10
2016,05,29,11,58,14.20
2016,05,29,11,59,14.30
2016,05,29,12,00,14.30
2016,05,29,12,01,14.30
2016,05,29,12,02,14.30
2016,05,29,12,03,14.30
2016,05,29,12,04,14.40
2016,05,29,12,05,14.40
2016,05,29,12,06,14.40
2016,05,29,12,07,14.40
2016,05,29,12,08,14.50
2016,05,29,12,09,14.50
2016,05,29,12,10,14.60
2016,05,29,12,11,14.60
2016,05,29,12,12,14.60
2016,05,29,12,13,14.60
2016,05,29,12,14,14.60
2016,05,29,12,15,14.60
2016,05,29,12,16,14.60
2016,05,29,12,17,14.70
2016,05,29,12,18,14.70
2016,05,29,12,19,14.80
2016,05,29,12,20,14.90
2016,05,29,12,21,14.90
2016,05,29,12,22,14.90
2016,05,29,12,23,15.00
2016,05,29,12,24,15.00
2016,05,29,12,25,15.10
2016,05,29,12,26,15.00
2016,05,29,12,27,15.00
2016,05,29,12,28,14.90
2016,05,29,12,29,14.90
2016,05,29,12,30,14.90
2016,05,29,12,31,14.90
2016,05,29,12,32,14.80
2016,05,29,12,33,14.80
2016,05,29,12,34,14.80
2016,05,29,12,35,14.70
2016,05,29,12,36,14.70
2016,05,29,12,37,14.70
2016,05,29,12,38,14.70
2016,05,29,12,39,14.60
2016,05,29,12,40,14.60
2016,05,29,12,41,14.60
2016,05,29,12,42,14.60
2016,05,29,12,43,14.60
2016,05,29,12,44,14.50
2016,05,29,12,45,14.60
2016,05,29,12,46,14.60
2016,05,29,12,47,14.60
2016,05,29,12,48,14.60
2016,05,29,12,49,14.60
2016,05,29,12,50,14.60
2016,05,29,12,51,14.50
2016,05,29,12,52,14.40
2016,05,29,12,53,14.40
2016,05,29,12,54,14.30
2016,05,29,12,55,14.30
2016,05,29,12,56,14.30
2016,05,29,12,57,14.30
2016,05,29,12,58,14.30
2016,05,29,12,59,14.30
2016,05,29,13,00,14.30
2016,05,29,13,01,14.30
2016,05,29,13,02,14.30
2016,05,29,13,03,14.30
2016,05,29,13,04,14.30
2016,05,29,13,05,14.30
2016,05,29,13,06,14.30
2016,05,29,13,07,14.40
2016,05,29,13,08,14.50
2016,05,29,13,09,14.50
2016,05,29,13,10,14.60
2016,05,29,13,11,14.70
2016,05,29,13,12,14.90
2016,05,29,13,13,15.10
2016,05,29,13,14,15.30
2016,05,29,13,15,15.50
2016,05,29,13,16,15.60
2016,05,29,13,17,15.90
2016,05,29,13,18,16.10
2016,05,29,13,19,16.20
2016,05,29,13,20,16.30
2016,05,29,13,21,16.30
2016,05,29,13,22,16.30
2016,05,29,13,23,16.40
2016,05,29,13,24,16.40
2016,05,29,13,25,16.40
2016,05,29,13,26,16.40
2016,05,29,13,27,16.40
2016,05,29,13,28,16.40
2016,05,29,13,29,16.50
2016,05,29,13,30,16.50
2016,05,29,13,31,16.50
2016,05,29,13,32,16.40
2016,05,29,13,33,16.40
2016,05,29,13,34,16.30
2016,05,29,13,35,16.20
2016,05,29,13,36,16.20
2016,05,29,13,37,16.10
2016,05,29,13,38,16.00
2016,05,29,13,39,16.00
2016,05,29,13,40,15.90
2016,05,29,13,41,15.90
2016,05,29,13,42,15.90
2016,05,29,13,43,15.80
2016,05,29,13,44,15.80
2016,05,29,13,45,15.80
2016,05,29,13,46,15.70
2016,05,29,13,47,15.60
2016,05,29,13,48,15.50
2016,05,29,13,49,15.50
2016,05,29,13,50,15.40
2016,05,29,13,51,15.40
2016,05,29,13,52,15.50
2016,05,29,13,53,15.50
2016,05,29,13,54,15.60
2016,05,29,13,55,15.70
2016,05,29,13,56,15.80
2016,05,29,13,57,15.90
2016,05,29,13,58,15.90
2016,05,29,13,59,15.80
2016,05,29,14,00,15.80
2016,05,29,14,01,15.90
2016,05,29,14,02,15.90
2016,05,29,14,03,15.90
2016,05,29,14,04,16.00
2016,05,29,14,05,16.00
2016,05,29,14,06,16.10
2016,05,29,14,07,16.10
2016,05,29,14,08,16.10
2016,05,29,14,09,16.10
2016,05,29,14,10,16.00
2016,05,29,14,11,16.00
2016,05,29,14,12,16.10
2016,05,29,14,13,16.20
2016,05,29,14,14,16.40
2016,05,29,14,15,16.50
2016,05,29,14,16,16.50
2016,05,29,14,17,16.50
2016,05,29,14,18,16.40
2016,05,29,14,19,16.30
2016,05,29,14,20,16.20
2016,05,29,14,21,16.10
2016,05,29,14,22,16.00
2016,05,29,14,23,15.90
2016,05,29,14,24,15.80
2016,05,29,14,25,15.80
2016,05,29,14,26,15.80
2016,05,29,14,27,15.80
2016,05,29,14,28,15.80
2016,05,29,14,29,15.90
2016,05,29,14,30,15.90
2016,05,29,14,31,16.00
2016,05,29,14,32,16.00
2016,05,29,14,33,16.00
2016,05,29,14,34,16.00
2016,05,29,14,35,16.10
2016,05,29,14,36,16.20
2016,05,29,14,37,16.30
2016,05,29,14,38,16.30
2016,05,29,14,39,16.40
2016,05,29,14,40,16.40
2016,05,29,14,41,16.50
2016,05,29,14,42,16.60
2016,05,29,14,43,16.70
2016,05,29,14,44,16.80
2016,05,29,14,45,16.80
2016,05,29,14,46,16.80
2016,05,29,14,47,16.90
2016,05,29,14,48,16.90
2016,05,29,14,49,17.00
2016,05,29,14,50,17.10
2016,05,29,14,51,17.20
2016,05,29,14,52,17.30
2016,05,29,14,53,17.40
2016,05,29,14,54,17.50
2016,05,29,14,55,17.60
2016,05,29,14,56,17.70
2016,05,29,14,57,17.70
2016,05,29,14,58,17.70
2016,05,29,14,59,17.60
2016,05,29,15,00,17.40
2016,05,29,15,01,17.30
2016,05,29,15,02,17.10
2016,05,29,15,03,17.00
2016,05,29,15,04,16.90
2016,05,29,15,05,16.90
2016,05,29,15,06,16.80
2016,05,29,15,07,16.80
2016,05,29,15,08,16.80
2016,05,29,15,09,16.90
2016,05,29,15,10,16.90
2016,05,29,15,11,16.90
2016,05,29,15,12,17.00
2016,05,29,15,13,17.00
2016,05,29,15,14,17.10
2016,05,29,15,15,17.10
2016,05,29,15,16,17.20
2016,05,29,15,17,17.30
2016,05,29,15,18,17.40
2016,05,29,15,19,17.50
2016,05,29,15,20,17.50
2016,05,29,15,21,17.60
2016,05,29,15,22,17.70
2016,05,29,15,23,17.80
2016,05,29,15,24,17.80
2016,05,29,15,25,17.80
2016,05,29,15,26,17.70
2016,05,29,15,27,17.70
2016,05,29,15,28,17.70
2016,05,29,15,29,17.70
2016,05,29,15,30,17.70
2016,05,29,15,31,17.70
2016,05,29,15,32,17.80
2016,05,29,15,33,17.80
2016,05,29,15,34,17.80
2016,05,29,15,35,17.90
2016,05,29,15,36,18.00
2016,05,29,15,37,18.20
2016,05,29,15,38,18.30
2016,05,29,15,39,18.50
2016,05,29,15,40,18.60
2016,05,29,15,41,18.70
2016,05,29,15,42,18.80
2016,05,29,15,43,18.80
2016,05,29,15,44,18.90
2016,05,29,15,45,18.90
2016,05,29,15,46,18.90
2016,05,29,15,47,19.00
2016,05,29,15,48,18.90
2016,05,29,15,49,18.80
2016,05,29,15,50,18.80
2016,05,29,15,51,18.80
2016,05,29,15,52,18.80
2016,05,29,15,53,18.80
2016,05,29,15,54,18.90
2016,05,29,15,55,19.00
2016,05,29,15,56,19.20
2016,05,29,15,57,19.20
2016,05,29,15,58,19.30
2016,05,29,15,59,19.30
2016,05,29,16,00,19.30
2016,05,29,16,01,19.30
2016,05,29,16,02,19.30
2016,05,29,16,03,19.40
2016,05,29,16,04,19.50
2016,05,29,16,05,19.60
2016,05,29,16,06,19.60
2016,05,29,16,07,19.60
2016,05,29,16,08,19.50
2016,05,29,16,09,19.50
2016,05,29,16,10,19.40
2016,05,29,16,11,19.40
2016,05,29,16,12,19.30
2016,05,29,16,13,19.40
2016,05,29,16,14,19.40
2016,05,29,16,15,19.40
2016,05,29,16,16,19.40
2016,05,29,16,17,19.50
2016,05,29,16,18,19.50
2016,05,29,16,19,19.50
2016,05,29,16,20,19.60
2016,05,29,16,21,19.60
2016,05,29,16,22,19.60
2016,05,29,16,23,19.50
2016,05,29,16,24,19.50
2016,05,29,16,25,19.50
2016,05,29,16,26,19.50
2016,05,29,16,27,19.50
2016,05,29,16,28,19.40
2016,05,29,16,29,19.40
2016,05,29,16,30,19.40
2016,05,29,16,31,19.30
2016,05,29,16,32,19.30
2016,05,29,16,33,19.30
2016,05,29,16,34,19.20
2016,05,29,16,35,19.20
2016,05,29,16,36,19.20
2016,05,29,16,37,19.20
2016,05,29,16,38,19.20
2016,05,29,16,39,19.10
2016,05,29,16,40,19.10
2016,05,29,16,41,19.00
2016,05,29,16,42,18.90
2016,05,29,16,43,18.90
2016,05,29,16,44,18.80
2016,05,29,16,45,18.80
2016,05,29,16,46,18.80
2016,05,29,16,47,18.80
2016,05,29,16,48,18.80
2016,05,29,16,49,18.80
2016,05,29,16,50,18.80
2016,05,29,16,51,18.80
2016,05,29,16,52,18.70
2016,05,29,16,53,18.60
2016,05,29,16,54,18.40
2016,05,29,16,55,18.40
2016,05,29,16,56,18.30
2016,05,29,16,57,18.30
2016,05,29,16,58,18.30
2016,05,29,16,59,18.30
2016,05,29,17,00,18.30
2016,05,29,17,01,18.20
2016,05,29,17,02,18.20
2016,05,29,17,03,18.20
2016,05,29,17,04,18.10
2016,05,29,17,05,18.00
2016,05,29,17,06,18.00
2016,05,29,17,07,17.90
2016,05,29,17,08,17.80
2016,05,29,17,09,17.80
2016,05,29,17,10,17.70
2016,05,29,17,11,17.70
2016,05,29,17,12,17.70
2016,05,29,17,13,17.60
2016,05,29,17,14,17.60
2016,05,29,17,15,17.70
2016,05,29,17,16,17.70
2016,05,29,17,17,17.70
2016,05,29,17,18,17.80
2016,05,29,17,19,17.80
2016,05,29,17,20,17.90
2016,05,29,17,21,18.00
2016,05,29,17,22,18.10